Temperature
19 20 21 22 21 20 20 19 19 20 19 19 18 17 17 18 18 18 18 19 19 19 19 19 18 18 18 18 17 17 17 17 17 17 17 16 16 16 16 16 16 15 15 15
20 20 21 21 21 21 20 20 20 20 19 18 17 17 17 17 18 17 18 18 18 19 19 19 18 18 18 18 17 17 17 17 17 16 16 16 16 16 16 15 15 15 15 15
18 20 21 20 19 19 19 18 19 19 19 16 16 16 16 17 17 17 17 18 18 18 18 18 18 18 18 18 17 17 17 16 16 16 16 16 16 15 15 15 15 15 14 14
16 19 20 19 18 19 18 17 17 17 16 16 15 16 16 17 17 17 17 18 18 18 18 18 18 18 17 17 17 17 16 16 16 16 16 15 15 15 15 14 14 14 14 14
15 17 18 19 18 18 18 17 16 16 16 15 15 16 16 17 17 17 17 18 18 18 18 18 18 17 17 17 17 16 16 16 15 15 15 15 14 14 14 14 13 13 13 13
14 17 17 18 18 17 17 17 16 15 15 15 16 16 15 16 16 17 17 17 17 17 17 17 17 17 17 16 16 16 15 15 15 15 15 14 14 14 13 13 13 12 12 12
15 16 16 16 16 17 18 17 16 15 15 15 15 15 16 16 16 16 16 17 17 17 17 17 16 16 16 16 16 15 15 15 14 14 14 14 13 13 13 12 12 12 11 11
13 15 15 15 15 16 15 15 15 15 15 15 15 15 15 15 15 16 16 16 16 16 16 16 16 16 16 15 15 14 14 14 13 13 13 13 13 12 12 12 11 11 11 11
13 13 13 13 14 14 15 15 15 15 15 15 15 15 15 15 15 15 15 15 15 15 15 15 15 15 15 14 14 14 13 13 13 13 12 12 12 11 11 11 11 10 10 10
12 13 13 13 14 14 15 15 15 15 15 15 15 15 14 14 14 14 14 14 14 14 14 14 14 14 14 13 13 13 13 12 12 12 11 11 11 11 10 10 10 10 9 9
12 12 13 13 14 14 14 15 15 15 15 15 14 14 14 14 14 14 14 13 13 13 13 13 13 13 13 13 13 12 12 11 11 11 11 10 10 10 9 9 9 9 9 8
12 12 12 13 13 14 14 14 14 14 14 14 14 13 13 13 13 13 13 13 13 13 12 12 12 12 12 12 12 12 11 11 11 10 10 10 9 9 8 8 8 8 8 8
13 13 13 13 13 13 13 13 13 13 13 13 13 13 13 12 12 12 12 12 12 12 12 12 11 11 11 11 11 11 11 11 10 10 9 9 9 9 8 7 7 7 7 7
13 13 12 12 12 13 13 13 13 12 12 12 12 12 12 12 11 11 11 11 11 11 11 11 11 11 10 11 11 11 10 10 10 9 9 9 9 8 8 8 7 6 6 6
12 12 12 12 12 12 12 12 11 11 11 11 11 11 11 11 11 11 10 10 10 10 10 10 10 10 10 10 10 10 10 9 9 9 9 8 8 8 7 7 7 6 6 5
11 11 11 11 11 11 11 11 11 10 10 10 10 10 10 10 10 10 10 10 10 10 9 9 9 9 9 10 9 9 9 9 9 9 8 8 7 7 7 7 6 6 6 5
11 10 10 10 10 10 10 10 10 9 10 9 9 9 9 9 9 9 9 9 9 9 9 9 9 9 9 9 9 9 9 8 8 8 8 8 7 7 7 6 6 6 5 5
11 11 11 10 10 10 9 9 9 9 9 9 9 9 9 9 9 9 9 9 9 9 9 9 9 9 9 9 9 9 9 8 8 8 8 7 7 7 6 6 6 5 5 5
11 10 10 10 10 9 9 9 9 9 9 9 9 9 9 9 9 9 9 9 9 8 8 9 9 9 9 9 9 9 8 8 8 8 7 7 7 6 6 6 6 5 5 4
10 10 10 9 9 9 9 9 9 9 9 9 9 9 8 8 8 8 8 9 9 8 8 8 9 9 9 9 9 9 8 8 8 7 7 7 7 6 6 6 5 5 4 4
10 9 9 9 9 9 9 9 9 9 9 9 9 9 8 8 8 8 8 8 8 8 8 8 8 8 8 8 8 8 8 8 8 7 7 7 6 6 6 5 5 5 4 4
9 9 9 9 9 9 9 9 9 9 9 9 9 8 8 8 8 8 8 8 8 8 8 8 8 8 8 8 8 8 8 8 7 7 7 7 6 6 6 5 5 4 4 4
9 9 9 9 9 9 8 9 9 9 9 8 8 8 8 8 8 8 8 8 8 8 8 8 8 8 8 8 8 8 7 7 7 7 6 6 6 6 5 5 4 4 4 3
9 9 9 9 9 9 9 9 9 9 9 8 8 8 8 8 8 8 8 8 8 8 8 8 8 8 8 8 7 7 7 7 7 6 6 6 5 5 5 5 4 4 4 3
9 9 9 9 9 9 9 9 9 9 8 8 8 8 8 8 8 8 8 8 7 7 7 7 7 7 7 7 7 7 7 6 6 6 6 5 5 5 5 4 4 4 3 3
9 9 9 9 9 9 9 9 9 9 8 8 8 8 8 8 8 8 7 7 7 7 7 7 7 7 7 7 6 6 6 6 6 6 5 5 5 5 4 4 4 4 3 3
9 9 9 9 9 9 9 9 9 9 9 8 8 8 8 8 8 7 7 7 7 7 7 7 6 6 6 6 6 6 6 6 5 5 5 5 5 4 4 4 4 3 3 3
Wind_Speed
3 3 5 4 5 6 5 8 8 8 7 7 6 4 4 4 4 4 4 5 6 6 5 5 5 5 4 4 4 5 6 6 6 5 6 6 6 6 6 6 7 7 7 6
2 1 4 3 2 4 4 4 4 3 6 3 1 2 3 4 5 5 5 5 6 6 6 5 5 5 5 4 4 5 6 5 5 6 6 6 6 7 7 7 7 7 7 7
1 1 4 2 2 3 3 1 4 6 5 1 1 2 3 4 5 5 5 5 5 5 5 5 5 5 6 5 5 6 5 5 5 6 7 7 7 7 7 7 7 8 7 8
3 3 4 5 2 4 5 2 1 1 0 1 2 2 2 2 4 5 4 4 4 4 4 4 4 5 5 6 6 7 6 6 6 7 8 8 8 8 8 7 8 7 7 8
4 4 2 2 1 2 4 0 1 2 2 3 4 4 3 3 2 3 3 4 4 4 5 5 6 6 7 7 7 7 7 7 7 8 8 9 9 9 9 9 9 9 8 9
5 5 7 6 2 1 4 1 2 3 3 3 3 2 2 1 3 3 3 4 4 5 6 6 6 8 9 8 8 7 7 8 8 8 9 10 10 10 10 10 10 10 11 10
4 4 5 3 3 1 5 6 3 3 4 3 2 3 3 3 3 3 4 4 5 6 6 5 6 8 9 9 8 8 9 10 10 10 10 11 11 10 11 11 11 11 11 10
4 3 6 2 1 4 4 1 1 1 2 2 2 3 4 4 4 5 5 5 6 7 7 6 6 9 10 9 9 10 11 12 11 11 11 11 12 11 11 11 12 11 11 10
5 5 2 2 1 2 1 1 1 1 1 3 3 3 3 4 4 5 5 5 5 7 8 7 7 8 11 8 10 12 13 13 12 12 11 10 11 11 10 9 9 9 9 9
1 2 1 1 1 2 2 1 1 1 1 2 3 4 4 5 5 5 5 6 6 8 9 8 8 9 10 10 11 13 14 13 12 13 12 11 9 9 9 8 9 9 9 8
1 2 1 2 2 2 3 2 2 1 1 3 4 4 5 6 6 6 6 6 7 8 10 10 10 10 10 10 13 14 14 13 12 12 13 12 11 9 9 7 7 9 8 7
5 5 4 3 2 2 2 2 2 2 3 3 4 6 7 7 7 7 8 8 9 10 11 10 11 11 10 9 12 14 13 12 10 11 11 11 12 13 17 14 16 14 11 10
3 2 2 1 1 1 1 1 2 3 4 4 5 7 8 8 8 9 10 10 11 11 11 11 11 11 9 9 11 12 13 12 10 10 10 10 10 12 12 12 16 16 14 14
3 4 2 0 1 2 3 4 5 6 6 7 7 8 10 10 11 11 11 10 11 12 12 12 12 11 9 10 12 13 13 13 12 9 9 9 10 10 10 10 9 8 10 13
2 3 4 3 4 5 5 6 8 8 9 9 9 10 11 12 13 12 11 12 13 14 12 12 12 10 9 11 12 13 12 10 10 10 9 9 9 9 9 9 9 7 6 7
5 6 7 7 6 6 7 8 9 9 9 11 11 12 13 14 14 13 12 12 14 13 11 11 11 9 9 11 12 10 10 14 12 10 9 9 8 9 8 8 8 7 6 5
7 6 6 7 7 7 7 7 9 10 11 12 12 13 15 16 15 14 12 11 12 11 10 10 10 9 10 10 11 9 9 10 13 10 8 8 8 8 7 7 7 6 5 4
6 6 7 8 9 9 9 9 10 11 11 12 13 14 15 15 14 12 11 11 12 11 9 8 8 9 9 9 9 8 8 8 7 8 7 7 7 6 6 7 7 7 5 5
9 10 10 10 9 10 10 10 10 11 12 13 13 14 13 13 12 11 11 11 11 9 5 6 10 9 8 9 10 8 8 9 8 7 7 8 7 6 6 6 6 6 5 4
10 11 11 11 10 11 11 11 12 12 11 12 14 13 12 11 11 11 11 9 6 4 4 7 8 8 7 8 10 8 8 9 8 7 7 7 6 6 6 6 6 5 5 4
12 12 13 12 12 11 11 12 12 12 11 11 12 12 12 10 10 9 10 8 4 5 7 9 7 6 6 8 9 8 8 8 8 7 7 7 7 6 6 6 5 5 4 4
11 12 13 13 13 12 10 10 12 13 12 11 12 12 12 10 10 9 7 5 4 6 6 5 5 8 9 10 7 7 7 7 7 6 6 6 6 6 6 6 5 4 4 3
11 12 12 12 12 12 11 10 11 11 11 11 10 10 10 8 6 7 6 3 4 7 6 5 8 11 12 8 7 7 7 7 6 6 6 6 6 6 6 6 5 4 4 3
12 12 11 11 12 12 11 9 9 9 9 9 8 8 9 7 5 4 5 6 8 9 6 7 11 11 10 6 6 6 6 6 5 5 5 5 5 5 5 5 5 4 4 4
12 12 12 12 10 9 9 9 10 9 9 7 7 6 5 5 5 5 5 6 8 8 6 7 10 9 6 5 6 6 5 5 5 6 5 5 5 5 5 5 5 4 4 4
10 9 8 8 7 7 7 7 6 6 6 6 5 4 5 5 6 6 5 6 7 7 6 4 5 6 5 5 5 5 5 5 5 5 5 5 5 5 4 4 5 5 5 5
10 9 8 7 6 6 6 6 6 6 5 6 5 4 5 5 6 6 6 5 5 5 4 4 4 4 4 4 4 4 4 4 4 4 4 4 4 4 5 6 5 6 6 6
Wind_Direction
205 200 159 167 169 164 157 171 173 214 221 248 245 221 198 167 144 139 144 151 157 154 151 151 154 153 157 162 158 157 156 164 177 174 164 152 145 140 135 137 140 134 125 117
31 45 144 131 146 153 150 160 178 189 241 267 308 122 141 154 153 157 162 156 157 155 152 153 156 156 158 157 151 143 151 164 159 150 144 139 137 133 129 126 124 119 117 112
185 317 86 147 226 164 143 163 167 194 230 326 57 121 157 166 162 161 161 156 157 158 153 153 155 158 160 154 139 137 141 139 131 131 131 130 128 123 121 116 108 103 104 103
133 116 184 239 318 133 124 83 354 227 199 141 142 125 85 125 144 146 148 146 145 149 148 142 136 140 138 133 133 134 131 123 118 121 120 117 115 112 105 100 99 96 96 98
126 154 210 260 182 145 144 225 310 141 104 100 112 86 51 51 83 139 142 137 134 141 143 139 137 138 130 126 127 128 127 122 122 120 119 116 113 108 104 100 94 88 85 86
128 150 206 224 255 252 116 252 236 154 155 154 119 117 215 84 81 95 106 117 124 123 119 125 130 130 125 124 123 124 123 120 117 116 115 112 110 106 100 97 94 88 80 73
142 178 240 256 299 114 162 223 208 179 179 166 173 195 175 126 102 100 98 103 114 115 113 115 118 118 117 116 116 114 110 105 102 102 106 108 106 103 103 100 95 90 83 70
137 166 235 308 79 171 209 240 154 176 175 154 141 132 130 120 113 102 95 93 102 104 97 93 106 112 109 109 110 108 106 103 101 101 104 107 105 101 100 103 99 93 86 74
176 200 244 311 229 283 230 165 162 161 178 156 157 161 142 127 120 107 96 92 96 100 93 81 83 104 109 107 109 109 106 104 102 99 99 102 106 106 101 97 98 95 92 86
137 253 262 320 345 350 341 294 271 177 181 171 177 168 149 135 126 115 104 102 103 106 102 92 86 92 103 107 106 106 106 104 102 100 95 89 89 94 101 103 105 103 100 97
198 241 319 331 357 354 8 20 31 53 131 164 157 156 146 132 122 116 108 102 105 107 105 100 96 94 96 103 108 107 106 105 103 100 101 91 80 70 80 71 104 114 110 108
209 209 185 231 295 341 2 15 48 88 80 94 133 136 126 122 118 115 111 106 105 104 103 100 98 94 92 99 109 112 110 106 106 106 103 101 98 83 63 74 78 83 95 102
190 161 161 204 351 360 16 47 68 96 119 120 114 122 122 119 114 110 107 104 104 104 104 101 98 94 92 99 104 107 111 111 110 109 110 109 108 108 100 76 67 69 79 93
148 124 120 145 75 63 85 81 81 85 87 99 107 110 114 113 109 106 105 105 104 102 101 101 98 94 95 99 102 104 105 108 110 109 111 110 109 109 111 112 101 77 65 82
107 130 141 120 96 87 89 92 92 90 92 95 103 108 109 109 107 105 105 105 102 98 97 99 98 97 99 103 106 108 109 110 109 108 107 108 108 107 107 107 108 106 96 78
111 106 111 109 105 100 100 103 104 100 100 101 101 101 102 103 101 98 97 101 103 102 103 103 101 103 104 107 107 105 107 113 113 113 112 111 112 114 114 116 116 114 110 108
134 133 130 125 116 107 103 107 110 111 107 104 104 105 104 101 97 94 92 92 95 96 98 102 104 104 104 107 108 111 112 116 115 114 117 119 120 121 122 123 121 116 110 110
127 129 130 128 123 115 110 108 109 109 110 111 109 106 104 104 103 101 99 96 92 84 79 91 103 106 106 109 112 116 117 118 120 122 121 120 121 123 124 124 126 121 113 101
112 113 111 110 112 116 117 114 113 111 111 111 109 106 104 103 104 104 101 98 98 94 79 92 109 111 112 119 120 120 123 122 119 118 120 123 122 125 128 128 127 125 125 121
112 114 112 109 108 111 113 113 113 111 111 112 109 106 103 102 106 105 98 88 83 99 106 104 105 105 109 119 120 123 126 130 131 129 128 131 133 132 132 133 134 135 135 137
120 118 115 112 107 104 108 112 114 113 111 112 112 112 110 106 103 103 101 93 64 79 96 101 104 109 109 115 114 121 126 131 135 136 137 138 138 139 139 139 140 144 147 150
122 119 116 114 109 104 100 102 108 109 108 106 107 110 110 106 100 91 84 100 103 100 100 101 107 113 116 113 114 120 125 129 132 134 137 141 143 145 148 149 151 155 159 167
118 116 114 113 111 107 100 99 105 110 112 113 115 116 114 111 111 113 106 94 104 106 104 106 116 116 114 111 117 122 126 130 135 140 145 148 151 153 156 158 163 167 173 182
115 113 112 111 109 108 105 102 101 104 106 106 110 116 117 111 89 79 109 117 115 109 103 113 116 116 113 114 119 123 128 132 136 141 146 148 152 157 162 168 175 182 189 196
115 114 116 117 114 114 113 109 102 100 101 101 100 100 102 110 118 120 116 118 117 108 105 114 119 119 117 121 125 129 133 140 144 147 150 153 160 168 175 180 186 192 199 207
114 115 114 115 118 119 119 115 113 113 113 109 99 96 97 98 109 115 114 115 113 110 110 113 120 120 122 128 131 135 139 143 145 151 161 167 175 180 185 192 200 207 213 217
105 106 105 100 99 109 117 120 123 125 126 126 119 114 114 114 115 117 117 118 119 117 118 119 122 126 130 133 137 142 147 151 157 163 171 176 182 191 199 204 211 217 220 222
Height
1452 1449 1449 1451 1453 1457 1460 1466 1474 1469 1467 1459 1456 1456 1457 1458 1461 1463 1465 1467 1469 1471 1474 1476 1479 1481 1484 1486 1488 1490 1493 1496 1499 1501 1504 1506 1508 1511 1514 1516 1519 1522 1524 1527
1452 1448 1448 1452 1452 1453 1455 1458 1460 1461 1461 1454 1454 1455 1456 1458 1460 1462 1464 1466 1469 1471 1473 1476 1478 1480 1483 1485 1487 1489 1492 1494 1497 1500 1502 1504 1507 1509 1511 1514 1517 1519 1522 1524
1462 1453 1451 1463 1456 1455 1457 1457 1457 1461 1458 1455 1455 1455 1456 1457 1459 1461 1463 1465 1468 1470 1472 1474 1477 1479 1482 1484 1486 1489 1491 1494 1496 1498 1501 1503 1506 1508 1510 1512 1515 1517 1519 1522
1465 1460 1471 1463 1451 1451 1455 1456 1455 1455 1455 1455 1455 1456 1457 1458 1459 1461 1462 1464 1466 1469 1471 1474 1476 1478 1481 1483 1485 1488 1490 1493 1495 1497 1500 1502 1504 1507 1509 1511 1514 1516 1518 1521
1470 1470 1465 1457 1452 1452 1455 1458 1455 1455 1455 1456 1456 1456 1458 1459 1460 1461 1462 1464 1466 1468 1470 1473 1475 1477 1479 1482 1484 1487 1489 1491 1494 1497 1499 1502 1504 1506 1509 1511 1513 1515 1518 1519
1468 1469 1473 1459 1450 1450 1453 1460 1454 1454 1455 1456 1456 1460 1460 1459 1460 1461 1462 1464 1465 1467 1469 1471 1473 1475 1477 1480 1483 1486 1488 1491 1494 1497 1499 1501 1504 1506 1509 1511 1514 1516 1518 1520
1465 1466 1462 1453 1450 1450 1463 1460 1452 1452 1453 1454 1455 1457 1457 1458 1459 1461 1462 1464 1465 1466 1468 1470 1473 1475 1477 1479 1482 1485 1488 1491 1494 1497 1500 1502 1505 1507 1510 1512 1515 1517 1519 1521
1465 1467 1466 1451 1450 1453 1453 1450 1450 1451 1453 1454 1454 1455 1456 1457 1459 1461 1462 1464 1465 1466 1468 1470 1473 1475 1477 1480 1483 1486 1488 1491 1494 1497 1500 1503 1506 1509 1511 1514 1516 1519 1521 1523
1458 1459 1453 1451 1450 1450 1449 1449 1449 1451 1452 1453 1453 1454 1456 1458 1460 1461 1462 1464 1466 1467 1469 1472 1474 1476 1478 1481 1484 1486 1489 1492 1496 1499 1501 1505 1507 1510 1513 1516 1518 1520 1522 1524
1454 1452 1451 1450 1450 1449 1449 1449 1449 1449 1450 1451 1452 1454 1456 1458 1460 1462 1463 1465 1467 1469 1470 1473 1476 1478 1480 1483 1485 1488 1491 1494 1497 1500 1503 1507 1510 1513 1516 1518 1520 1522 1524 1526
1453 1451 1450 1449 1449 1449 1449 1449 1449 1449 1450 1451 1452 1453 1455 1458 1460 1462 1464 1467 1469 1471 1472 1475 1478 1480 1483 1485 1488 1490 1493 1496 1499 1502 1505 1509 1512 1516 1519 1522 1524 1526 1528 1530
1451 1448 1449 1449 1449 1449 1449 1449 1449 1449 1449 1450 1451 1453 1455 1458 1461 1463 1465 1468 1470 1472 1475 1478 1481 1483 1485 1488 1491 1493 1496 1499 1503 1506 1509 1512 1515 1518 1523 1525 1528 1530 1532 1533
1445 1446 1447 1448 1448 1449 1449 1449 1448 1448 1449 1449 1451 1453 1456 1459 1461 1464 1467 1469 1472 1474 1477 1480 1483 1485 1489 1492 1494 1497 1499 1502 1506 1509 1513 1516 1519 1521 1524 1529 1531 1533 1535 1537
1444 1445 1447 1447 1448 1448 1448 1448 1448 1448 1449 1450 1452 1454 1456 1459 1462 1465 1469 1472 1475 1478 1481 1484 1486 1489 1493 1496 1498 1500 1503 1507 1510 1513 1517 1520 1523 1526 1528 1531 1533 1536 1538 1540
1444 1445 1446 1447 1448 1448 1448 1449 1449 1450 1450 1452 1454 1456 1458 1461 1464 1468 1472 1475 1478 1481 1485 1488 1491 1494 1497 1500 1502 1505 1508 1511 1514 1518 1521 1524 1527 1530 1532 1535 1537 1539 1541 1543
1443 1444 1446 1447 1448 1449 1449 1450 1451 1452 1453 1455 1457 1459 1462 1465 1468 1472 1476 1479 1482 1485 1489 1492 1495 1498 1501 1504 1507 1510 1513 1516 1519 1522 1525 1528 1531 1533 1536 1538 1540 1542 1544 1546
1442 1444 1446 1447 1448 1450 1451 1452 1453 1455 1456 1458 1461 1464 1466 1469 1473 1477 1481 1485 1487 1491 1494 1497 1500 1503 1506 1509 1512 1515 1517 1520 1523 1526 1529 1532 1534 1537 1539 1541 1543 1544 1546 1548
1442 1444 1446 1448 1449 1451 1453 1455 1456 1458 1460 1463 1466 1468 1471 1474 1478 1482 1486 1490 1493 1496 1499 1502 1505 1508 1511 1514 1517 1520 1522 1524 1527 1530 1532 1535 1537 1540 1542 1543 1545 1546 1548 1549
1443 1446 1448 1450 1452 1453 1455 1457 1460 1462 1465 1468 1471 1474 1477 1481 1485 1488 1492 1495 1498 1501 1504 1507 1510 1513 1515 1518 1521 1523 1526 1528 1531 1533 1535 1537 1540 1542 1544 1545 1547 1548 1549 1550
1446 1448 1451 1453 1455 1457 1459 1461 1464 1467 1470 1473 1476 1479 1483 1487 1490 1493 1496 1499 1503 1506 1509 1511 1514 1517 1519 1521 1524 1526 1528 1531 1533 1535 1537 1539 1541 1543 1545 1547 1548 1549 1550 1551
1449 1451 1454 1457 1459 1461 1464 1466 1469 1472 1476 1479 1482 1485 1488 1492 1496 1498 1501 1504 1508 1510 1513 1516 1518 1520 1522 1524 1527 1529 1531 1533 1535 1537 1539 1541 1543 1544 1546 1547 1549 1550 1550 1551
1452 1455 1458 1461 1464 1466 1470 1473 1475 1478 1481 1485 1488 1491 1494 1497 1500 1503 1506 1509 1512 1514 1517 1519 1521 1523 1525 1527 1529 1531 1533 1535 1537 1539 1540 1542 1544 1545 1547 1548 1549 1550 1550 1551
1456 1459 1463 1466 1469 1472 1475 1479 1481 1484 1487 1490 1493 1496 1499 1502 1505 1507 1510 1513 1515 1517 1520 1522 1524 1526 1528 1529 1531 1533 1534 1536 1538 1540 1541 1543 1545 1546 1547 1548 1549 1550 1550 1550
1460 1464 1468 1471 1474 1477 1481 1484 1487 1490 1493 1496 1499 1501 1504 1506 1509 1511 1513 1516 1518 1520 1522 1524 1526 1528 1529 1531 1532 1534 1535 1537 1539 1540 1542 1543 1544 1546 1547 1548 1548 1549 1549 1549
1465 1469 1473 1476 1479 1483 1486 1489 1492 1495 1498 1501 1503 1506 1508 1510 1512 1514 1517 1519 1521 1523 1524 1526 1528 1529 1531 1532 1533 1535 1536 1537 1539 1540 1542 1543 1544 1545 1546 1547 1548 1548 1548 1548
1471 1474 1478 1482 1485 1488 1491 1494 1496 1499 1502 1504 1507 1509 1511 1513 1515 1517 1519 1521 1523 1524 1526 1527 1529 1530 1531 1533 1534 1535 1537 1538 1539 1540 1542 1543 1544 1545 1545 1546 1546 1547 1547 1547
1476 1480 1483 1486 1490 1493 1495 1498 1500 1503 1505 1507 1509 1512 1514 1516 1517 1519 1521 1522 1524 1525 1527 1528 1530 1531 1532 1534 1535 1536 1537 1538 1539 1540 1541 1542 1543 1544 1544 1545 1545 1545 1545 1545